Regional Weather Roundup
Issued by NWS

Home | Current Version | Previous Version | Graphics & Text | Print | Product List | Glossary On
Versions: 1 2 3 4 5 6 7 8 9 10 11 12 13 14 15 16 17 18 19 20 21 22 23 24 25 26 27 28 29 30 31 32 33 34 35 36 37 38 39 40 41 42 43 44 45 46 47 48 49 50
409
ASUS43 KTOP 012108
RWRKS

WEATHER ROUNDUP FOR KANSAS
NATIONAL WEATHER SERVICE GOODLAND KS
400 PM CDT SUN MAY 01 2016

NOTE:  "FAIR" INDICATES FEW OR NO CLOUDS BELOW 12,000 FEET WITH NO
SIGNIFICANT WEATHER AND/OR OBSTRUCTIONS TO VISIBILITY.

KSZ001>006-013>018-027>032-041>047-012200-
NORTHWEST KANSAS

CITY           SKY/WX    TMP DP  RH WIND       PRES   REMARKS
GOODLAND       CLOUDY    49  31  49 N17G26    30.21R
HAYS           CLOUDY    48  34  57 N20G28    30.18R
HILL CITY      CLOUDY    49  39  68 N15       30.21R
RUSSELL        CLOUDY    50  41  71 N21G28    30.15R
$$

KSZ061>065-074>080-084>089-012200-
SOUTHWEST KANSAS

CITY           SKY/WX    TMP DP  RH WIND       PRES   REMARKS
DODGE CITY     CLOUDY    45  37  73 N12       30.20R
ELKHART          N/A     42  35  76 N17         N/A
GARDEN CITY    CLOUDY    46  37  71 NE14      30.21S
GREAT BEND     CLOUDY    48  37  66 N14       30.16S
LIBERAL        CLOUDY    45  36  70 N18       30.20F
PRATT          CLOUDY    47  37  68 N16       30.15F
$$

KSZ066>073-081>083-090>101-012200-
SOUTHEAST KANSAS

CITY           SKY/WX    TMP DP  RH WIND       PRES   REMARKS
CHANUTE        CLOUDY    61  46  57 NW17      30.05F
COFFEYVILLE    PTSUNNY   63  46  54 NW15      30.05S
HUTCHINSON     CLOUDY    53  42  66 N13       30.13R
MEDICINE LODGE   N/A     52  41  66 N12       30.14F
NEWTON         CLOUDY    52  39  62 N16       30.13R
PARSONS        CLOUDY    63  49  60 N13       30.06S
WICHITA INTL   CLOUDY    54  42  64 N17       30.11R
WICHITA JABRA  CLOUDY    53  43  68 NW18      30.10R
WICHITA MCCONL PTSUNNY   54  43  66 N13       30.10S
WINFIELD       CLOUDY    56  44  64 NW16      30.13R
$$

KSZ007>012-019>026-033>040-048>060-102>105-012200-
NORTHEAST KANSAS

CITY           SKY/WX    TMP DP  RH WIND       PRES   REMARKS
CONCORDIA      CLOUDY    49  39  68 N16G23    30.14R
EMPORIA        PTSUNNY   58  47  66 NW15      30.06S
LAWRENCE       CLOUDY    60  49  66 NW15      30.05R
MANHATTAN      CLOUDY    53  43  68 N7        30.09F
MARYSVILLE     CLOUDY    48  43  81 N14G21    30.10S
OLATHE IND     CLOUDY    57  48  72 NW16      30.05R
OLATHE EXE     CLOUDY    55  46  71 N13G22    30.04R
SALINA         CLOUDY    55  42  61 N21       30.14R
TOPEKA BILLARD PTSUNNY   58  46  64 NW16G23   30.05S
TOPEKA FORBES  CLOUDY    59  48  67 NW17      30.04F
$$




USA.gov is the U.S. government's official web portal to all federal, state and local government web resources and services.